Wetbulb
59.50 59.31 59.15 59.09 59.39 59.50 59.73 59.84 59.81 59.85 60.11 60.43 60.41 60.85 61.65 61.92 61.50 65.25 63.76 68.67 71.10 76.53 73.88 66.96 69.07 68.57 67.79 66.17 65.03 65.65 61.29 57.07 58.05 59.48 61.15 64.72 64.33 68.61 68.00 67.25 68.69 69.88 71.12 71.71 72.67
59.35 59.24 59.00 59.11 59.25 59.24 59.54 59.41 59.56 59.70 59.76 59.95 60.14 60.63 61.84 62.14 62.97 61.39 72.01 75.16 74.68 76.09 66.00 65.66 65.09 66.10 63.40 62.75 63.42 62.51 61.00 57.85 61.66 61.78 61.53 63.41 64.11 66.19 63.64 64.97 67.85 69.42 71.76 72.67 72.46
59.13 58.77 58.64 58.77 58.83 58.90 59.20 59.22 59.32 59.25 59.42 59.52 59.88 60.68 61.79 62.21 61.40 61.73 74.05 75.40 73.50 72.33 66.74 66.37 65.81 65.05 61.88 62.21 61.34 62.06 58.48 60.74 61.64 62.36 62.72 62.65 63.78 66.41 63.39 61.63 65.95 68.70 70.26 71.74 71.65
58.53 58.40 58.38 58.61 58.72 58.59 58.72 58.79 58.80 58.90 58.94 59.28 59.93 61.10 61.99 62.81 54.44 63.04 74.29 74.85 74.88 67.67 66.09 65.45 64.75 62.70 60.75 59.48 60.75 58.60 59.97 60.70 60.85 62.17 60.91 61.20 63.09 62.72 64.42 65.19 66.62 71.84 72.14 71.91 71.26
58.16 57.88 58.44 58.28 57.88 58.23 58.27 58.14 58.32 58.40 58.57 59.26 60.00 61.52 62.93 59.68 58.48 65.04 75.30 73.35 67.44 66.46 65.06 65.39 63.41 62.39 58.94 59.72 59.57 58.42 59.84 60.36 61.11 61.19 60.96 61.93 61.86 61.50 63.30 66.66 67.92 71.89 72.13 71.47 71.32
57.89 58.07 58.24 57.96 57.58 57.66 57.85 57.55 58.18 57.90 58.35 59.09 60.37 61.53 61.84 54.87 64.08 65.11 64.90 66.68 67.16 67.42 66.44 65.95 63.97 63.08 60.72 59.67 59.00 60.98 59.91 60.13 60.66 60.63 61.45 59.50 60.85 61.75 65.85 67.03 67.33 69.91 70.92 71.48 71.15
57.46 57.69 58.05 58.09 57.45 57.30 57.10 57.30 57.52 57.73 58.22 59.24 60.92 63.12 59.13 58.64 63.50 64.05 63.77 64.25 67.62 67.40 65.62 66.64 66.15 62.00 62.09 59.62 61.54 60.29 57.70 59.84 60.08 60.21 59.27 61.04 59.56 61.33 64.92 65.87 67.35 68.26 69.41 70.99 71.73
57.20 57.36 57.86 57.73 57.07 56.63 56.47 56.63 56.95 57.73 58.61 60.00 61.59 62.71 56.86 62.70 63.88 62.39 63.66 64.55 67.34 67.64 66.45 66.39 66.13 62.97 61.53 62.50 59.67 57.92 59.04 55.64 59.24 58.62 60.79 59.71 57.29 63.77 64.62 64.48 64.52 67.72 68.74 70.00 71.50
57.59 56.88 57.45 57.29 56.15 56.43 56.20 56.24 57.12 58.54 59.77 61.09 61.77 60.53 55.54 64.81 58.95 61.76 62.68 62.88 65.34 65.95 66.25 65.91 64.25 61.25 61.15 57.70 55.77 57.48 53.77 54.98 55.99 59.70 57.57 58.37 57.33 64.25 64.54 63.01 63.95 67.06 68.45 68.73 70.27
57.32 56.41 56.97 56.88 55.83 55.51 55.85 55.86 58.32 58.89 61.56 63.70 62.11 58.94 59.45 55.92 58.91 59.77 62.74 63.82 63.96 63.94 62.80 62.31 61.31 58.07 58.23 56.46 51.63 54.18 54.93 54.99 54.44 57.67 57.19 56.63 59.05 63.89 65.08 62.27 65.31 66.94 68.84 69.27 69.92
56.60 56.73 56.46 56.47 55.45 54.97 55.77 59.49 57.95 57.05 60.50 55.02 54.98 55.58 56.60 59.26 60.51 58.64 62.48 62.41 63.16 61.73 57.71 60.39 56.52 54.21 56.42 58.05 57.57 56.99 54.92 53.50 56.33 58.11 55.61 56.77 57.10 62.10 63.80 63.75 64.60 66.09 67.52 68.16 69.94
56.53 56.34 56.12 55.88 55.59 54.99 55.94 59.67 60.95 61.17 56.16 58.71 57.20 56.41 59.11 59.70 55.41 58.79 62.99 59.41 59.28 56.50 58.68 57.55 54.32 57.89 58.90 58.64 56.73 55.05 53.80 53.73 56.31 57.77 56.75 56.77 56.89 61.76 63.08 64.07 65.26 65.19 66.31 67.21 68.24
56.49 56.03 55.82 55.41 55.21 54.66 58.89 59.53 63.91 64.00 57.23 57.93 56.71 55.77 56.18 58.40 55.65 57.15 61.15 59.75 57.85 56.39 56.67 55.42 56.50 58.56 58.01 56.75 54.29 54.12 53.73 53.58 53.62 56.46 57.40 56.40 58.43 59.12 59.93 61.65 65.42 66.85 67.24 68.57 68.81
55.63 55.81 55.27 54.71 52.49 60.30 57.61 61.53 63.06 63.83 54.56 53.73 52.67 55.01 57.23 57.05 54.86 61.18 61.68 59.59 58.37 55.98 56.83 56.56 58.75 56.76 56.36 54.98 55.37 52.62 56.58 55.36 53.16 52.62 49.98 56.98 50.54 53.68 55.73 57.94 61.49 65.48 65.78 66.56 67.33
55.36 55.23 54.61 54.09 57.02 60.93 61.50 63.28 64.11 62.05 47.05 53.86 53.71 60.58 58.48 54.96 56.77 58.12 61.30 59.34 56.13 56.00 56.76 54.17 55.51 55.55 54.29 54.57 56.48 54.46 56.71 55.37 54.38 52.49 52.46 54.92 52.38 53.96 55.23 53.45 57.10 63.17 64.96 66.24 66.74
55.03 54.73 54.14 56.66 57.66 61.71 64.92 64.45 62.40 52.09 46.92 51.52 55.96 54.30 54.10 55.71 55.79 57.49 57.49 59.31 59.63 56.18 56.40 55.74 58.59 57.37 55.61 56.66 57.18 57.18 55.05 54.61 54.11 52.21 48.14 53.19 50.98 49.46 52.40 55.57 59.58 63.29 64.54 66.32 66.27
53.79 53.11 53.68 60.76 61.10 63.68 63.74 61.62 51.28 47.48 55.27 52.22 53.06 54.08 53.53 53.48 53.69 54.21 53.53 53.29 52.34 50.48 51.07 53.90 55.09 56.85 56.95 54.52 57.08 55.30 52.52 47.94 47.65 47.18 47.73 53.54 53.77 53.75 57.91 60.70 62.06 63.16 64.26 66.60 67.54
52.43 51.71 56.59 61.33 65.72 64.48 62.93 55.99 48.16 52.63 53.66 55.30 53.74 53.18 51.64 53.79 53.32 53.02 52.30 51.20 54.54 54.10 51.68 49.50 47.90 54.20 56.14 54.87 53.88 54.07 53.18 48.94 45.20 46.39 48.49 54.99 50.93 55.66 61.47 63.04 63.90 64.72 65.50 66.74 67.18
51.66 62.78 61.94 63.46 63.23 64.42 59.38 50.48 52.27 54.99 55.30 53.64 53.27 50.91 51.28 53.11 53.50 52.44 52.29 51.52 53.90 55.27 50.94 50.79 50.38 56.08 56.50 57.04 56.41 54.04 52.25 56.36 51.11 52.16 49.92 53.01 55.74 58.39 58.53 62.55 63.24 64.33 65.26 65.91 66.91
57.87 64.64 64.52 64.69 63.87 62.51 56.16 49.41 54.20 58.15 57.55 55.35 50.88 52.80 50.45 51.95 51.63 51.80 51.80 54.31 53.78 55.89 56.61 54.08 50.83 55.45 56.21 57.58 57.93 56.54 58.31 52.44 52.29 48.20 46.51 50.57 51.98 48.47 54.26 60.45 62.71 63.36 64.93 66.68 67.88
60.11 61.51 63.13 64.38 64.04 58.65 51.81 53.52 56.26 59.55 59.76 56.66 53.65 52.98 53.29 52.41 52.67 52.39 52.20 54.51 55.72 55.38 56.27 55.06 55.79 53.15 58.30 55.57 54.41 54.93 54.19 54.92 54.03 52.66 45.14 44.32 48.21 56.36 55.70 60.95 62.41 63.47 66.16 67.02 67.80
61.50 58.66 63.24 63.54 55.88 56.36 53.68 55.29 53.49 57.93 59.54 58.83 58.90 57.01 54.32 54.87 53.29 52.37 52.54 54.71 57.50 56.45 52.87 55.33 55.01 53.53 54.86 58.02 58.76 57.83 56.33 56.15 52.06 49.53 53.28 52.33 47.00 60.09 60.82 63.18 63.75 64.97 66.95 68.01 69.21
59.01 62.22 63.21 61.49 51.95 53.10 55.98 55.64 57.35 56.50 57.90 57.09 56.63 58.10 58.57 54.94 53.22 54.00 54.91 57.86 57.85 55.98 54.44 55.40 53.14 51.37 51.66 56.57 58.20 56.16 56.53 56.76 55.87 55.54 52.93 50.91 53.09 62.54 62.55 62.83 63.65 65.92 68.50 69.56 69.96
58.75 59.02 58.54 58.91 58.42 56.02 55.66 54.31 55.37 58.03 57.70 58.74 58.81 59.40 57.49 56.30 56.44 54.29 55.15 56.99 57.22 56.78 64.17 62.79 54.61 53.20 51.11 52.02 57.58 55.85 56.25 56.64 55.04 51.43 51.43 52.94 53.73 59.75 61.84 62.80 64.18 67.47 68.75 69.28 70.88
60.19 59.85 60.09 55.64 54.71 56.65 57.79 56.98 54.55 54.21 57.38 58.58 57.38 58.92 58.28 56.05 55.26 54.47 56.11 57.05 57.87 62.80 59.70 57.31 53.60 55.77 56.90 55.55 56.47 55.93 56.04 54.61 53.31 54.31 51.55 53.10 53.18 60.30 62.59 63.50 65.25 68.08 69.64 69.26 69.51
59.35 59.25 58.36 59.74 57.09 56.37 54.51 55.71 54.61 54.81 56.65 55.37 57.37 58.71 58.78 57.63 57.51 54.61 56.68 57.21 56.85 58.27 57.21 57.99 55.27 57.04 54.79 55.54 56.59 54.39 55.42 55.54 55.44 54.96 54.91 54.57 56.97 63.76 64.19 65.49 66.45 68.22 68.30 68.96 69.20
63.67 63.22 60.80 57.50 60.07 54.91 54.80 55.43 56.26 57.26 58.19 59.56 58.68 58.46 58.62 59.24 60.19 61.05 61.31 61.59 60.76 57.19 56.95 56.46 54.89 55.42 52.43 55.53 54.40 51.04 55.74 56.28 56.63 56.58 55.19 52.68 61.92 64.77 63.77 64.25 66.93 67.86 68.16 68.45 69.09
MSLP
1017.35 1017.10 1016.83 1016.58 1016.29 1015.92 1015.59 1015.34 1015.10 1014.75 1014.37 1014.01 1013.62 1013.13 1012.67 1012.18 1010.66 1009.23 1007.85 1006.52 1006.41 1006.22 1006.35 1005.18 1004.01 1003.26 1002.19 1001.68 1001.09 1001.04 1000.96 1000.96 1001.21 1001.28 1001.56 1001.46 1001.63 1002.50 1003.66 1004.65 1003.53 1003.25 1004.06 1005.16 1006.47
1017.27 1016.98 1016.72 1016.48 1016.22 1015.91 1015.61 1015.29 1014.94 1014.65 1014.33 1013.86 1013.39 1013.06 1012.62 1012.16 1010.56 1007.83 1006.36 1006.15 1006.08 1006.23 1005.85 1004.39 1002.84 1002.04 1001.45 1000.62 1000.60 1000.84 1000.91 1001.06 1001.21 1000.88 1000.91 1001.29 1001.59 1003.22 1004.20 1006.40 1003.39 1004.02 1004.38 1005.68 1006.51
1017.22 1016.94 1016.65 1016.33 1016.07 1015.81 1015.48 1015.20 1014.90 1014.55 1014.20 1013.87 1013.43 1012.91 1012.56 1012.22 1009.32 1005.68 1006.08 1006.19 1006.07 1006.10 1005.69 1004.75 1003.22 1001.91 1000.69 1000.30 1000.53 1000.56 1000.62 1000.84 1001.13 1001.63 1001.18 1000.85 1001.12 1001.61 1002.51 1003.47 1002.75 1003.06 1004.48 1005.59 1006.36
1017.23 1016.90 1016.53 1016.19 1015.90 1015.61 1015.28 1014.99 1014.75 1014.45 1014.11 1013.74 1013.28 1012.84 1012.32 1011.28 1007.64 1005.66 1005.94 1005.96 1005.96 1005.84 1005.47 1004.55 1002.77 1001.46 1000.23 999.85 1000.46 1000.57 1000.68 1000.89 1000.86 1001.17 1001.04 1001.06 1000.89 1000.81 1001.12 1001.65 1002.08 1002.87 1004.37 1005.38 1006.09
1017.26 1016.94 1016.54 1016.14 1015.75 1015.39 1015.08 1014.78 1014.52 1014.26 1013.93 1013.58 1013.22 1012.82 1011.27 1009.15 1006.05 1005.51 1005.71 1005.71 1005.55 1005.63 1004.93 1003.70 1002.13 1000.93 1000.09 999.94 1000.42 1000.31 1000.03 1000.22 1000.33 1000.35 1000.44 1000.79 1000.66 1001.08 1001.06 1001.42 1002.07 1003.01 1004.29 1005.20 1005.77
1017.28 1016.89 1016.47 1016.09 1015.66 1015.27 1014.93 1014.62 1014.29 1014.01 1013.74 1013.44 1013.16 1012.80 1011.25 1007.65 1004.13 1004.28 1004.69 1004.79 1004.66 1004.44 1003.90 1003.03 1001.83 1001.25 1000.83 1000.23 1000.30 1000.24 1000.33 999.98 999.91 999.87 999.99 1000.28 1000.51 1000.80 1001.10 1001.50 1002.10 1002.59 1003.60 1004.27 1004.99
1017.29 1016.82 1016.33 1015.91 1015.49 1015.14 1014.82 1014.48 1014.12 1013.81 1013.54 1013.29 1013.14 1012.41 1009.51 1006.17 1004.03 1003.77 1004.21 1004.17 1003.91 1003.43 1002.94 1002.26 1001.87 1001.62 1000.81 1000.26 1000.10 1000.63 1000.26 999.58 999.54 999.82 1000.06 1000.38 1000.29 1000.44 1001.05 1001.22 1001.67 1002.12 1002.77 1003.74 1004.45
1017.19 1016.71 1016.19 1015.68 1015.24 1014.93 1014.65 1014.30 1013.94 1013.64 1013.41 1013.14 1013.02 1011.74 1007.85 1004.59 1004.66 1004.03 1003.87 1003.54 1003.25 1002.98 1002.65 1002.09 1001.96 1002.01 1001.35 1000.40 1000.38 1000.33 999.99 999.38 999.48 999.95 1000.09 1000.33 1000.29 1000.88 1001.02 1001.02 1001.30 1001.87 1002.46 1003.09 1003.65
1017.08 1016.58 1016.05 1015.49 1015.04 1014.73 1014.34 1013.95 1013.59 1013.34 1013.12 1012.93 1012.25 1010.25 1006.01 1003.83 1003.91 1003.77 1003.71 1003.22 1002.99 1002.91 1002.75 1002.50 1002.69 1002.09 1001.18 1000.50 1000.00 999.84 999.30 999.32 999.31 999.74 1000.06 999.95 999.91 1000.86 1000.93 1000.95 1001.29 1001.72 1002.27 1003.36 1003.99
1016.96 1016.45 1015.95 1015.35 1014.87 1014.51 1014.04 1013.73 1013.18 1012.97 1012.39 1011.53 1010.18 1008.56 1004.78 1003.12 1002.97 1003.26 1003.30 1002.96 1002.55 1002.55 1002.53 1002.66 1002.45 1001.81 1000.73 999.96 999.66 1000.05 999.10 999.05 999.23 999.66 1000.05 999.97 999.92 1000.63 1001.13 1001.01 1001.35 1001.48 1002.51 1003.68 1005.45
1016.77 1016.27 1015.77 1015.24 1014.77 1014.45 1013.59 1012.62 1012.23 1011.12 1009.46 1006.98 1005.76 1004.57 1002.38 1002.31 1002.03 1002.49 1002.56 1002.60 1002.23 1002.28 1002.05 1002.02 1001.68 1000.73 999.64 999.06 999.51 999.74 999.43 999.26 999.13 999.61 1000.39 1000.33 1000.25 1000.57 1001.42 1001.67 1001.83 1001.63 1002.16 1003.51 1003.83
1016.58 1016.12 1015.57 1015.07 1014.67 1014.41 1014.04 1010.24 1006.55 1005.65 1005.70 1005.49 1004.51 1003.35 1002.36 1001.69 1001.81 1002.02 1002.13 1002.39 1001.97 1001.61 1001.66 1001.21 1000.74 999.85 999.27 999.22 999.63 999.67 999.53 999.09 998.62 999.27 1000.30 1000.66 1000.94 1001.48 1002.21 1002.57 1002.52 1002.56 1002.54 1002.72 1003.22
1016.42 1015.89 1015.39 1014.91 1014.49 1013.93 1011.16 1008.09 1006.11 1005.40 1004.40 1002.71 1003.15 1002.55 1002.20 1002.25 1001.42 1001.52 1001.80 1001.91 1001.54 1001.27 1000.75 1000.10 999.40 999.36 998.89 999.11 999.51 999.48 999.10 998.56 998.70 999.25 999.95 1000.82 1002.65 1004.73 1006.23 1006.31 1003.94 1003.28 1003.04 1003.15 1003.50
1016.20 1015.65 1015.19 1014.76 1014.48 1010.03 1008.97 1007.43 1006.65 1005.63 1003.88 1001.29 1001.81 1001.55 1001.44 1001.58 1000.90 1000.66 1001.23 1001.35 1000.77 1000.59 1000.08 999.58 998.61 998.61 998.98 999.17 999.15 998.58 998.39 998.38 998.99 999.66 999.99 1000.81 1004.32 1008.01 1009.31 1008.57 1005.77 1003.37 1003.29 1003.36 1003.64
1015.85 1015.34 1014.95 1014.99 1012.84 1008.49 1005.96 1005.76 1005.70 1005.35 1002.11 1000.18 1000.30 1000.00 1000.40 1000.45 999.72 1000.06 1000.82 1000.80 1000.21 1000.03 999.75 999.19 998.71 998.71 999.02 998.90 998.97 998.66 998.57 999.10 999.17 999.50 999.95 1002.13 1005.11 1008.43 1009.38 1007.51 1006.18 1004.20 1003.42 1003.63 1003.68
1015.38 1014.92 1014.54 1013.23 1012.39 1008.39 1006.54 1005.86 1005.91 1004.31 1000.10 999.14 999.49 999.80 999.98 999.83 999.42 999.66 1000.27 1000.71 1000.19 999.82 999.47 998.76 998.61 998.53 998.68 998.74 998.71 998.86 999.02 999.02 999.00 999.36 999.90 1002.21 1005.18 1007.20 1008.49 1006.52 1005.57 1003.72 1003.57 1003.39 1003.76
1014.64 1014.31 1014.23 1011.57 1007.96 1006.38 1006.35 1005.80 1004.48 1001.50 998.20 998.31 998.80 999.23 999.34 999.17 999.05 999.65 1000.05 1000.29 999.91 999.77 999.08 999.10 998.47 998.47 998.67 998.44 998.28 998.79 998.73 998.19 998.31 998.67 999.87 1001.41 1003.19 1004.41 1004.62 1004.62 1003.04 1003.09 1003.26 1003.30 1003.57
1013.53 1013.24 1011.40 1009.88 1007.45 1006.95 1006.24 1005.30 1002.49 998.57 997.06 997.07 997.92 998.66 998.59 998.32 998.57 999.35 999.62 999.70 999.63 998.86 997.99 998.24 998.25 998.02 998.29 998.41 998.06 998.02 997.73 997.65 997.88 998.61 1000.73 1000.89 1002.41 1003.81 1004.08 1003.37 1003.04 1002.67 1002.85 1003.13 1003.61
1012.28 1010.41 1009.42 1007.62 1008.28 1007.25 1005.86 1003.44 999.53 996.99 995.81 996.30 997.13 997.62 997.65 997.51 997.73 998.70 998.86 998.79 998.52 998.32 997.65 996.82 996.85 996.66 997.45 997.84 998.24 997.79 997.48 997.24 998.07 998.19 999.55 1002.19 1004.27 1005.48 1005.95 1004.24 1003.18 1002.97 1002.91 1003.19 1003.59
1012.42 1008.72 1005.83 1005.37 1006.84 1006.70 1005.05 1001.86 999.41 997.27 995.64 995.77 996.19 996.67 996.62 996.76 997.29 997.65 997.99 997.86 997.59 997.65 997.60 996.97 996.63 996.69 997.02 997.49 997.45 997.40 997.50 997.27 997.24 999.15 1001.70 1004.27 1006.22 1008.78 1008.31 1004.63 1003.04 1002.64 1002.86 1003.28 1003.77
1011.60 1007.27 1004.51 1005.07 1005.81 1005.42 1003.30 1001.03 998.84 997.34 996.91 996.06 995.82 996.04 995.96 996.02 996.70 996.66 996.78 997.00 997.03 996.92 997.41 997.33 997.36 998.55 998.11 997.34 997.12 997.14 997.51 997.42 997.74 1000.33 1002.86 1006.07 1007.44 1007.15 1005.08 1003.60 1002.03 1002.38 1002.47 1002.85 1003.48
1010.10 1006.18 1004.45 1004.82 1004.91 1003.87 1002.13 1000.27 999.11 997.63 997.63 997.20 996.30 995.72 995.79 995.53 996.00 996.42 996.10 995.94 996.06 996.72 997.09 997.45 996.90 998.44 998.10 997.18 997.08 996.89 997.39 997.73 998.42 1000.41 1001.84 1002.28 1005.16 1003.67 1003.81 1002.11 1002.09 1002.34 1002.53 1002.96 1003.64
1010.39 1006.31 1004.44 1004.27 1003.40 1002.23 1001.39 999.94 998.60 998.54 997.67 997.40 996.97 996.59 995.88 995.71 995.65 995.98 995.62 995.42 995.92 996.66 996.94 997.52 997.58 998.37 999.70 998.40 997.97 997.70 997.31 997.25 998.69 998.52 999.82 1000.96 1002.73 1001.37 1001.44 1001.83 1002.21 1002.46 1003.44 1004.12 1004.63
1011.02 1005.54 1004.18 1004.12 1003.08 1001.51 1000.44 999.58 998.69 998.82 997.90 997.29 996.87 996.54 996.44 995.86 995.53 995.91 995.46 996.06 996.66 996.88 997.79 997.80 997.77 998.15 999.94 1001.78 1000.77 999.28 997.89 997.53 997.86 998.11 998.83 999.81 999.93 1000.39 1001.09 1002.05 1002.31 1002.68 1003.45 1004.12 1004.91
1010.53 1007.45 1007.53 1004.11 1002.78 1001.94 1000.25 998.97 998.76 998.27 998.09 997.77 997.64 997.18 996.53 996.12 995.69 995.78 995.74 995.97 996.89 997.53 997.94 998.07 998.34 999.12 1001.10 1002.21 1002.15 1000.63 999.48 998.34 998.33 998.62 998.95 999.08 999.52 1000.06 1000.90 1001.73 1002.31 1002.98 1003.51 1004.40 1005.19
1009.82 1008.96 1007.27 1004.86 1002.02 1001.46 1000.07 999.14 998.17 997.98 997.32 997.39 997.19 996.89 996.85 996.25 996.07 995.70 995.85 996.32 996.86 997.72 998.38 998.47 998.80 999.88 1001.13 1001.57 1001.71 1001.03 999.76 998.78 998.36 998.30 998.39 998.85 999.72 1000.56 1001.03 1001.77 1002.28 1002.90 1003.72 1004.84 1005.82
1009.67 1009.02 1007.77 1004.71 1001.91 1000.81 999.78 999.32 998.81 997.90 997.20 997.01 996.65 996.86 996.51 996.04 995.60 996.11 996.67 997.68 997.45 997.69 998.51 998.89 999.15 999.89 1001.60 1002.73 1003.11 1002.41 1001.06 999.14 998.46 998.17 998.54 998.95 999.85 1000.66 1001.60 1002.27 1002.60 1003.23 1003.73 1004.87 1005.88
Wind_Speed
13 13 13 13 13 14 14 14 13 14 15 16 17 17 17 18 24 9 12 0 2 8 4 14 17 13 13 16 2 11 7 8 10 11 6 5 10 18 20 23 14 11 18 20 18
14 14 14 14 14 14 13 13 14 14 15 16 18 17 17 17 11 17 2 3 5 2 10 17 15 9 12 5 3 1 2 4 8 7 4 8 9 25 13 9 4 15 18 19 17
15 15 15 15 15 14 13 13 13 14 14 15 17 18 17 15 12 14 4 4 4 5 13 16 19 16 19 3 3 4 6 3 7 8 10 10 6 11 15 6 4 18 16 17 16
15 16 16 16 16 15 14 13 13 13 14 15 16 17 17 7 5 7 8 4 4 9 14 15 18 19 17 3 6 6 3 3 3 8 2 6 8 4 9 8 10 19 16 14 15
16 16 15 16 17 15 15 14 13 13 14 15 16 16 11 11 19 12 10 8 9 11 14 16 18 15 11 2 5 8 1 7 8 7 3 2 5 5 9 10 8 17 15 12 12
16 16 15 15 16 15 14 14 13 14 14 14 14 17 7 16 14 13 10 11 13 15 17 17 14 12 12 1 5 5 5 6 4 2 1 1 4 2 11 7 3 13 15 16 16
17 16 16 15 16 15 14 13 13 14 15 14 12 8 11 18 7 5 8 12 14 15 16 14 15 9 14 10 4 5 12 9 10 3 2 8 11 5 7 3 9 7 9 16 16
17 17 17 16 16 15 14 13 13 14 14 14 11 9 10 18 20 12 12 14 15 13 15 14 5 12 15 14 5 11 14 9 8 3 6 9 6 6 3 6 1 7 9 10 16
16 18 17 16 17 14 13 13 15 14 13 12 8 10 16 7 15 13 14 14 13 13 11 7 7 14 19 13 13 12 9 4 3 8 2 7 4 10 4 3 1 7 10 7 10
16 18 17 16 15 14 14 12 7 10 9 10 11 9 20 15 15 18 18 17 14 14 12 11 10 14 16 14 7 2 16 9 3 6 2 11 7 13 6 1 7 5 11 19 23
17 17 16 16 16 13 13 6 6 8 15 14 17 15 8 19 13 19 18 16 16 13 15 15 13 16 19 15 7 2 8 8 7 8 3 10 4 12 6 4 1 2 3 20 19
16 17 17 15 14 11 8 8 10 10 7 24 21 20 15 4 8 13 16 14 15 16 16 16 15 20 17 4 5 7 9 13 8 8 6 9 3 10 8 5 3 2 4 4 5
17 17 16 15 13 7 13 17 11 12 9 16 22 14 12 12 14 19 18 18 15 16 17 18 19 15 15 1 7 9 14 15 6 1 8 10 7 20 32 31 3 3 3 9 5
18 17 16 14 6 10 14 17 16 10 8 17 20 15 17 14 16 19 18 18 14 17 18 17 18 12 2 10 10 16 6 10 3 9 9 15 4 14 14 18 17 7 8 8 1
19 18 14 6 14 9 5 8 4 6 8 19 19 10 13 18 17 17 17 18 17 14 15 11 17 8 11 12 12 15 6 9 12 12 15 13 7 3 4 13 23 10 8 10 3
19 17 15 7 8 16 15 3 7 8 8 15 13 15 17 20 14 17 18 19 14 11 13 16 12 10 9 11 11 6 12 13 15 13 13 16 10 6 9 14 18 9 7 7 7
21 15 8 11 7 10 10 7 8 11 20 19 19 19 19 13 14 14 17 19 15 11 14 13 14 9 12 14 13 9 14 12 11 11 2 12 10 9 21 20 10 13 8 7 10
25 19 12 10 9 8 7 9 10 16 13 18 17 19 18 17 16 15 17 15 19 17 11 12 13 16 12 13 13 15 16 10 7 7 11 12 9 3 12 10 10 13 11 11 11
33 6 6 9 14 10 9 12 10 10 11 15 18 18 17 16 10 14 17 18 18 18 17 11 12 15 17 13 13 16 15 18 11 20 6 10 8 21 31 6 12 11 11 10 8
8 9 11 11 13 8 9 17 20 21 3 11 14 14 15 18 12 16 18 17 17 18 17 19 9 15 14 12 11 15 13 15 8 5 5 4 6 9 25 12 12 11 12 11 10
6 8 11 11 10 8 11 17 23 4 7 8 11 11 15 13 15 12 13 13 18 16 14 17 4 11 20 9 14 10 12 14 7 7 7 9 7 15 22 20 12 8 11 13 13
7 7 9 11 9 9 14 23 12 8 4 14 10 14 12 12 13 15 14 16 15 16 15 17 11 18 16 14 10 13 6 11 8 9 11 10 11 24 22 8 10 10 9 11 13
7 4 7 10 10 12 18 24 13 11 15 12 9 11 13 11 9 12 12 10 12 15 12 14 12 3 10 13 5 9 13 2 7 10 6 9 4 8 11 10 5 13 11 8 9
7 5 6 8 13 18 15 20 9 12 18 12 8 12 10 13 9 10 12 8 6 11 6 5 14 12 10 3 20 14 10 4 8 8 12 12 6 13 15 10 5 12 11 12 8
6 5 8 8 13 16 19 13 18 17 15 13 9 13 10 10 12 13 16 15 13 8 6 9 14 4 19 25 25 17 16 8 4 5 6 12 10 15 10 14 11 10 11 9 8
6 4 6 19 15 18 14 12 12 16 15 15 11 15 15 15 13 14 13 11 13 14 14 14 12 3 4 2 11 16 18 13 8 10 8 4 8 11 8 11 11 11 10 12 10
9 9 9 13 18 12 14 16 12 16 14 17 15 16 17 17 16 8 7 13 11 17 14 17 14 12 1 9 5 18 21 12 9 3 3 7 14 12 8 5 9 9 9 14 9
Wind_Direction
345 342 337 333 330 327 325 323 321 320 320 320 320 319 320 321 309 249 262 168 172 164 265 276 239 245 246 258 235 291 286 58 41 87 106 11 77 92 5 353 73 52 132 126 146
346 341 336 333 329 325 322 320 317 317 318 318 317 318 320 326 290 276 275 176 155 172 269 278 281 259 244 233 261 312 246 57 340 47 51 114 87 107 117 50 202 97 106 129 154
346 341 337 333 329 323 319 315 313 314 315 314 314 316 317 316 278 246 143 188 181 231 266 289 295 276 272 210 353 39 87 27 120 25 336 344 155 63 137 188 127 119 127 142 154
343 340 336 332 329 323 317 313 311 311 311 312 313 316 311 270 270 100 167 183 174 250 260 267 265 259 273 169 126 248 165 168 81 164 143 342 346 31 65 81 6 116 131 145 158
342 339 331 329 326 319 315 309 307 307 308 309 312 321 314 238 249 150 173 182 204 219 243 256 266 276 296 136 116 268 268 192 160 180 150 183 295 47 60 75 95 111 126 146 166
338 333 329 326 323 317 312 303 302 303 303 303 310 316 250 257 260 147 213 180 223 213 238 250 272 349 296 319 278 21 277 288 202 252 323 317 284 102 96 81 81 126 153 159 168
337 332 326 323 320 315 307 301 296 296 295 296 306 296 264 248 296 295 216 234 219 237 240 242 264 280 271 272 171 223 267 266 204 108 320 343 259 99 72 174 128 153 164 156 166
335 333 325 324 322 314 306 295 289 286 286 284 290 269 261 256 244 252 252 235 229 235 260 290 235 279 281 286 176 237 248 254 112 67 129 247 147 150 188 116 292 137 139 169 161
326 333 325 325 324 318 304 295 285 280 270 274 259 222 257 197 224 240 227 230 214 230 235 292 279 258 254 248 225 213 214 304 166 133 288 251 192 134 146 96 259 158 165 180 172
328 332 325 325 322 317 308 292 314 290 227 244 255 250 243 219 208 209 221 232 218 221 219 220 234 240 242 238 265 51 289 153 195 119 22 287 91 147 129 7 163 155 172 76 297
330 324 326 323 322 322 309 205 200 199 224 215 175 222 134 218 186 200 205 212 235 216 219 209 226 230 239 229 104 297 328 316 263 114 273 293 307 122 91 118 68 271 200 146 206
326 323 323 321 319 319 284 243 333 336 231 230 263 219 278 116 171 203 193 202 213 221 215 222 222 239 248 89 321 262 243 262 235 147 195 252 333 79 97 70 72 85 222 105 105
320 323 318 320 323 271 236 243 319 325 271 205 212 231 223 235 211 199 191 204 209 226 211 235 209 234 254 161 226 242 256 264 355 137 221 244 84 37 355 343 315 114 243 111 108
326 321 320 320 288 221 224 245 257 285 278 159 196 216 215 197 232 193 191 203 215 222 231 224 258 192 239 241 245 250 270 356 305 260 269 264 133 46 0 307 323 165 44 102 191
322 320 311 285 322 251 355 224 239 258 271 144 178 190 183 208 194 188 182 217 237 219 241 204 249 172 242 250 225 266 355 310 297 274 260 82 78 275 295 324 288 292 138 101 311
320 317 314 212 223 257 305 223 236 234 229 169 143 172 172 219 171 176 179 225 238 239 246 266 204 265 235 243 255 308 286 277 248 240 256 140 130 216 221 202 253 127 126 121 99
315 310 270 307 250 214 234 239 225 247 137 147 164 177 181 203 169 167 189 203 219 225 218 225 263 215 261 238 234 237 250 257 238 225 332 314 157 201 224 226 157 146 134 116 104
313 310 207 245 299 267 244 224 249 235 201 149 167 174 191 191 169 182 188 202 221 230 201 206 213 235 195 240 257 226 247 267 285 291 220 243 71 188 208 153 113 121 134 125 115
311 192 235 226 222 272 239 224 238 270 150 162 171 180 199 193 178 182 204 212 208 234 251 211 213 207 199 211 219 250 250 267 270 256 224 46 30 21 345 194 135 130 125 111 112
308 276 240 181 175 222 238 246 268 299 27 169 173 189 200 182 218 183 197 217 229 209 253 278 284 153 190 217 239 269 285 296 266 6 64 32 69 138 264 259 151 149 131 123 131
250 246 123 157 179 227 236 240 244 7 329 317 213 176 230 191 193 216 217 218 211 229 228 257 280 329 303 196 236 207 241 259 313 127 105 352 307 208 209 233 137 131 151 140 131
285 270 135 169 200 227 235 246 285 277 177 281 312 303 213 219 194 230 210 220 198 227 203 240 272 178 244 219 221 278 357 303 286 39 220 227 224 247 212 170 126 165 93 96 104
282 291 171 201 222 224 232 256 258 233 255 219 252 277 293 246 194 220 216 231 174 215 210 227 255 220 349 317 200 255 273 207 212 251 278 53 44 138 132 110 145 124 112 102 105
278 254 148 216 244 261 273 232 248 240 275 271 276 257 232 270 192 223 233 125 160 234 9 282 268 275 151 240 304 304 318 326 315 317 350 132 243 150 130 135 148 120 147 142 122
246 344 25 253 223 241 251 263 226 241 210 251 249 269 274 255 260 196 248 167 178 188 243 239 248 284 140 179 224 274 271 280 251 309 308 332 335 121 135 143 154 144 116 125 120
296 42 296 288 221 221 251 276 263 224 242 210 240 248 235 257 242 242 225 218 184 184 219 224 241 135 75 138 314 227 248 249 271 263 256 277 75 75 107 126 144 142 144 119 124
2 345 274 284 290 210 225 225 254 273 239 248 223 240 254 229 235 345 64 28 323 194 199 226 231 236 91 165 29 307 324 292 282 70 3 305 102 118 103 109 140 150 161 132 125